Weather History for Redmond, OR

Change the Weather History Date:

Wednesday, February 13, 2013

  Actual Average Record
Temperature  
Mean Temperature 36 °F 35 °F  
Max Temperature 46 °F 46 °F 59 °F (1977)
Min Temperature 25 °F 24 °F 5 °F (1995)
Degree Days  
Heating Degree Days 29 30  
Month to date heating degree days 381 397  
Since 1 July heating degree days 4026 4237  
Cooling Degree Days 0 0  
Month to date cooling degree days 0 0  
Year to date cooling degree days 0 0  
Moisture  
Dew Point 28 °F    
Average Humidity 73    
Maximum Humidity 92    
Minimum Humidity 53    
Precipitation  
Precipitation T in 0.02 in 0.21 in (1986)
Month to date precipitation T 0.32  
Year to date precipitation 0.41 1.29  
Sea Level Pressure  
Sea Level Pressure 30.42 in    
Wind  
Wind Speed 3 mph (ESE)    
Max Wind Speed 13 mph    
Max Gust Speed 16 mph    
Visibility 10 miles    
Events      
T = Trace of Precipitation, MM = Missing Value Source: NWS Daily Summary

Daily Weather History Graph

Daily Weather History Graph

Search for Another Location

Airport:

Trip Planner

Search our weather history database for the weather conditions in past years. The results will help you decide how hot, cold, wet, or windy it might be!

Date:

Astronomy

Feb. 13, 2013 Rise Set
Actual Time 7:06 AM PST 5:31 PM PST
Civil Twilight 6:36 AM PST 6:01 PM PST
Nautical Twilight 6:02 AM PST 6:35 PM PST
Astronomical Twilight 5:29 AM PST 7:09 PM PST
Moon 8:28 AM PST (2/13) 9:51 PM PST (2/13)
Length of Visible Light 11h 24m
Length of Day
10h 25m
Waxing Crescent, 14% of the Moon is Illuminated
Feb 13
Waxing Crescent
Feb 17
First Quarter
Feb 25
Full
Mar 4
Last Quarter
Mar 11
New

Hourly Weather History & Observations

Time (PST) Temp. Windchill Dew Point Humidity Pressure Visibility Wind Dir Wind Speed Gust Speed Precip Events Conditions
12:56 AM 28.9 °F 25.2 °F 25.0 °F 85% 30.40 in 10.0 mi SSE 3.5 mph - N/A   Mostly Cloudy
1:56 AM 32.0 °F - 27.0 °F 82% 30.40 in 10.0 mi Calm Calm - 0.00 in   Overcast
2:56 AM 33.1 °F 30.0 °F 28.0 °F 82% 30.40 in 10.0 mi SSE 3.5 mph - N/A   Overcast
3:56 AM 33.1 °F 26.9 °F 28.0 °F 82% 30.39 in 10.0 mi South 6.9 mph - N/A   Mostly Cloudy
4:56 AM 30.9 °F 25.2 °F 27.0 °F 85% 30.40 in 10.0 mi SSE 5.8 mph - N/A   Mostly Cloudy
5:56 AM 28.9 °F 21.9 °F 25.0 °F 85% 30.41 in 10.0 mi NE 6.9 mph - N/A   Clear
6:56 AM 28.0 °F 24.2 °F 26.1 °F 92% 30.43 in 10.0 mi SSE 3.5 mph - N/A   Clear
7:56 AM 30.0 °F - 27.0 °F 88% 30.43 in 10.0 mi Calm Calm - N/A   Clear
8:56 AM 33.1 °F - 28.0 °F 82% 30.44 in 10.0 mi Calm Calm - N/A   Clear
9:56 AM 37.9 °F - 30.0 °F 73% 30.44 in 10.0 mi Calm Calm - N/A   Clear
10:56 AM 39.9 °F - 30.9 °F 70% 30.44 in 9.0 mi Calm Calm - N/A   Overcast
11:56 AM 41.0 °F 39.0 °F 32.0 °F 70% 30.43 in 10.0 mi NE 3.5 mph - N/A   Overcast
12:56 PM 42.1 °F - 30.9 °F 65% 30.42 in 10.0 mi Calm Calm - N/A   Overcast
1:56 PM 43.0 °F 41.3 °F 30.9 °F 62% 30.40 in 10.0 mi SE 3.5 mph - N/A   Overcast
2:56 PM 45.0 °F 41.2 °F 28.9 °F 53% 30.39 in 10.0 mi WNW 6.9 mph - N/A   Overcast
3:56 PM 45.0 °F 40.1 °F 30.0 °F 56% 30.38 in 10.0 mi NNW 9.2 mph - N/A   Overcast
4:56 PM 44.1 °F 39.0 °F 30.9 °F 60% 30.38 in 10.0 mi North 9.2 mph - N/A   Clear
5:56 PM 37.9 °F 32.7 °F 30.0 °F 73% 30.41 in 10.0 mi North 6.9 mph - N/A   Clear
6:56 PM 36.0 °F 32.1 °F 30.0 °F 79% 30.42 in 10.0 mi North 4.6 mph - N/A   Clear
7:56 PM 30.9 °F - 27.0 °F 85% 30.44 in 10.0 mi Calm Calm - N/A   Clear
8:56 PM 28.0 °F - 25.0 °F 88% 30.45 in 10.0 mi Calm Calm - N/A   Clear
9:56 PM 27.0 °F - 25.0 °F 92% 30.45 in 10.0 mi Calm Calm - N/A   Clear
10:56 PM 25.0 °F - 23.0 °F 92% 30.47 in 10.0 mi Calm Calm - N/A   Clear
11:56 PM 27.0 °F 21.6 °F 25.0 °F 92% 30.47 in 10.0 mi South 4.6 mph - N/A   Clear